This is the latest recevied weather packets stored in our database for station/object K1BES. If no packets are shown the sender has not sent any weather packets the latest 10 day(s).
| Time | Temp. | Humidity | Pressure | Rain* | Wind** | Luminosity | Snow |
|---|---|---|---|---|---|---|---|
| 1788635281 | 33.89° C | 66% | 1015.6 hPa | 0 mm | - | 886 W/m² | - |
| 1788634981 | 33.89° C | 67% | 1015.8 hPa | 0 mm | - | 900 W/m² | - |
| 1788634680 | 33.89° C | 66% | 1015.8 hPa | 0 mm | - | 912 W/m² | - |
| 1788634375 | 33.89° C | 66% | 1015.8 hPa | 0 mm | - | 920 W/m² | - |
| 1788634068 | 33.89° C | 66% | 1015.9 hPa | 0 mm | - | 930 W/m² | - |
| 1788633768 | 33.33° C | 67% | 1016 hPa | 0 mm | - | 941 W/m² | - |
| 1788633467 | 33.89° C | 66% | 1015.9 hPa | 0 mm | - | 948 W/m² | - |
| 1788633163 | 33.33° C | 68% | 1016 hPa | 0 mm | - | 956 W/m² | - |
| 1788632862 | 33.33° C | 67% | 1015.9 hPa | 0 mm | - | 964 W/m² | - |
| 1788632562 | 33.33° C | 71% | 1015.7 hPa | 0 mm | - | 970 W/m² | - |
| 1788632257 | 33.33° C | 70% | 1016 hPa | 0 mm | - | 975 W/m² | - |
| 1788631956 | 33.33° C | 71% | 1016 hPa | 0 mm | - | 982 W/m² | - |
| 1788631651 | 33.33° C | 71% | 1015.9 hPa | 0 mm | - | 985 W/m² | - |
| 1788631347 | 33.89° C | 68% | 1015.9 hPa | 0 mm | - | 992 W/m² | - |
| 1788631047 | 33.33° C | 70% | 1015.9 hPa | 0 mm | - | 992 W/m² | - |
| 1788630741 | 33.33° C | 69% | 1016.1 hPa | 0 mm | - | 997 W/m² | - |
| 1788630437 | 33.33° C | 68% | 1015.9 hPa | 0 mm | - | 1000 W/m² | - |
| 1788630132 | 33.89° C | 68% | 1016.2 hPa | 0 mm | - | 1000 W/m² | - |
| 1788629828 | 33.89° C | 69% | 1016.5 hPa | 0 mm | - | 1000 W/m² | - |
| 1788629558 | 33.89° C | 69% | 1016.5 hPa | 0 mm | - | 1000 W/m² | - |
| 1788629223 | 33.89° C | 70% | 1016.5 hPa | 0 mm | - | 1000 W/m² | - |
| 1788628923 | 33.33° C | 68% | 1016.5 hPa | 0 mm | - | 999 W/m² | - |
| 1788628619 | 33.33° C | 68% | 1016.6 hPa | 0 mm | - | 998 W/m² | - |
| 1788628315 | 33.33° C | 69% | 1016.5 hPa | 0 mm | - | 997 W/m² | - |
| 1788628012 | 33.33° C | 69% | 1016.8 hPa | 0 mm | - | 992 W/m² | - |
* Rain latest hour (hover to see other rain measurements)
** Current wind speed in m/s (hover to see current wind gust speed)